Home   Weather   Lindlar   Past weeks

Flag for Germany Past Weather in Lindlar, North Rhine-Westphalia, Germany — Yesterday and Last 2 Weeks

Now
30 °F

Clear.


Feels Like: 27 °F
Forecast: 29 / 38 °F
Wind: 3 mph from East

Location: Koeln / Bonn

Current Time: Dec 6, 2016 at 4:07:45 am

Latest Report: Dec 6, 2016 at 3:20 am


Visibility: 10 mi

Pressure: 30.39 "Hg

Humidity: 80%

Dew Point: 25 °F

Location of LindlarLocation

Past Weather in Lindlar — Graph

°F

Lindlar Temperature Yesterday

Maximum temperature yesterday: 39 °F (at 1:20 pm)
Minimum temperature yesterday: 30 °F (at 12:20 am)
Average temperature yesterday: 33 °F

High & Low Weather Summary for the Past Weeks

 TemperatureHumidityPressure
High61 °F (Nov 24, 1:20 pm)100% (Nov 23, 12:20 am)30.57 "Hg (Nov 23, 12:20 am)
Low18 °F (Nov 30, 6:50 am)44% (Nov 25, 3:20 pm)29.50 "Hg (Nov 21, 3:20 pm)
Average40 °F82%30.19 "Hg
* Reported Nov 21 2:20 am — Dec 6 2:50 am, Lindlar, Weather by CustomWeather, © 2016

Note: Actual official high and low records may vary slightly from our data, if they occured in-between our weather recording intervals... More about our weather records

Advertising

Lindlar Weather History for the Previous 24 Hours

Scroll right to see more
 ConditionsComfort  
Time TempWeatherWind HumidityBarometerVisibility
2:50 am
Tue, Dec 6
30 °FPassing clouds.3 mph80%30.36 "HgN/A
2:20 am30 °FPassing clouds.5 mph80%30.36 "HgN/A
1:50 am30 °FPassing clouds.5 mph86%30.36 "HgN/A
1:20 am30 °FPassing clouds.5 mph86%30.36 "HgN/A
12:50 am30 °FPassing clouds.3 mph86%30.36 "HgN/A
12:20 am30 °FPassing clouds.3 mph86%30.36 "HgN/A
11:50 pm
Mon, Dec 5
30 °FPassing clouds.3 mph86%30.36 "HgN/A
11:20 pm32 °FClear.3 mph80%30.36 "Hg10 mi
10:50 pm32 °FPassing clouds.5 mph80%30.36 "HgN/A
10:20 pm32 °FPassing clouds.3 mph80%30.36 "HgN/A
9:50 pm32 °FPassing clouds.3 mph80%30.36 "HgN/A
9:20 pm32 °FPassing clouds.5 mph80%30.33 "HgN/A
8:50 pm32 °FPassing clouds.3 mph80%30.33 "HgN/A
8:20 pm32 °FPassing clouds.3 mph80%30.33 "HgN/A
7:50 pm32 °FPassing clouds.5 mph80%30.33 "HgN/A
7:20 pm32 °FClear.5 mph80%30.33 "Hg10 mi
6:50 pm34 °FPassing clouds.3 mph75%30.33 "HgN/A
6:20 pm34 °FPassing clouds.5 mph75%30.33 "HgN/A
5:50 pm34 °FPassing clouds.3 mph75%30.33 "HgN/A
5:20 pm36 °FPassing clouds.5 mph75%30.33 "HgN/A
4:50 pm36 °FPassing clouds.3 mph75%30.33 "HgN/A
4:20 pm37 °FPassing clouds.3 mph70%30.30 "HgN/A
3:50 pm39 °FSunny.6 mph65%30.30 "Hg10 mi
3:20 pm39 °FSunny.7 mph65%30.30 "Hg10 mi
2:50 pm39 °FPassing clouds.7 mph65%30.30 "HgN/A
2:20 pm39 °FSunny.8 mph65%30.30 "Hg10 mi
1:50 pm39 °FPassing clouds.7 mph65%30.30 "HgN/A
1:20 pm39 °FPassing clouds.7 mph61%30.30 "HgN/A
12:50 pm37 °FSunny.9 mph65%30.30 "Hg10 mi
12:20 pm37 °FPassing clouds.10 mph65%30.33 "HgN/A
11:50 am36 °FPassing clouds.9 mph70%30.33 "HgN/A
11:20 am36 °FPassing clouds.9 mph70%30.33 "HgN/A
10:50 am34 °FPassing clouds.7 mph70%30.33 "HgN/A
10:20 am34 °FSunny.8 mph70%30.33 "Hg10 mi
9:50 am32 °FPassing clouds.9 mph69%30.33 "HgN/A
9:20 am32 °FSunny.9 mph69%30.33 "Hg10 mi
8:50 am30 °FPassing clouds.6 mph75%30.33 "HgN/A
8:20 am30 °FSunny.9 mph69%30.30 "Hg10 mi
7:50 am30 °FClear.9 mph75%30.30 "Hg10 mi
7:20 am30 °FClear.10 mph69%30.30 "Hg10 mi
6:50 am30 °FClear.10 mph69%30.30 "Hg10 mi
6:20 am30 °FPassing clouds.9 mph69%30.30 "HgN/A
5:50 am30 °FClear.9 mph69%30.30 "Hg10 mi
5:20 am30 °FClear.9 mph69%30.30 "Hg10 mi
4:50 am30 °FPassing clouds.5 mph69%30.30 "HgN/A
4:20 am30 °FPassing clouds.3 mph69%30.33 "HgN/A
Weather by CustomWeather, © 2016

See weather overviewHow to use our weather pages